Flag for U.S.A. Weather past 2 weeks in New York, New York, U.S.A.

Now
71 °F

Scattered clouds.


Feels Like: 77 °F
Forecast: 67 / 81 °F
Wind: 5 mph from North

Location: New York City - Central Park

Current Time: Jul 29, 2014 at 9:53:05 PM

Latest Report: Jul 29, 2014 at 8:51 PM


Visibility: 10 mi

Pressure: 29.95 "Hg

Humidity: 45%

Dew point: 49 °F

Location of New YorkLocation

Historic Weather in New York — Graph

°F

New York temperature yesterday

Maximum temperature yesterday: 80 °F (at 4:51 PM)
Minimum temperature yesterday: 69 °F (at 4:51 AM)
Average temperature yesterday: 74 °F

Past Weeks' High & Low Weather Summary

 TemperatureHumidityPressure
High86 °F (Jul 23, 12:51 PM)94% (Jul 14, 7:51 PM)30.25 "Hg (Jul 14, 7:51 PM)
Low64 °F (Jul 29, 5:51 AM)28% (Jul 19, 4:51 AM)29.52 "Hg (Jul 28, 1:51 PM)
Average74 °F64%29.92 "Hg
* Reported Jul 14 7:03 PM — Jul 29 7:51 PM, New York, Weather by CustomWeather, © 2014

Note: Actual official high and low records may vary slightly from our data, if they occured in-between our weather recording intervals... More about our weather records

Advertising

New York weather history for previous 24 hours

 ConditionsComfort  
Time TempWeatherWind HumidityBarometerVisibility
7:51 PM
Jul 29
72 °FOvercast.5 mph43%29.94 "Hg10 mi
6:51 PM74 °FOvercast.No wind40%29.93 "Hg10 mi
5:51 PM74 °FScattered clouds.5 mph41%29.91 "Hg10 mi
4:51 PM74 °FPartly sunny.N/A41%29.90 "Hg10 mi
3:51 PM76 °FScattered clouds.5 mph40%29.88 "Hg10 mi
2:51 PM76 °FPassing clouds.8 mph42%29.88 "Hg10 mi
1:51 PM72 °FScattered clouds.10 mph49%29.87 "Hg10 mi
12:51 PM72 °FBroken clouds.No wind46%29.86 "Hg10 mi
11:51 AM72 °FSunny.7 mph46%29.86 "Hg10 mi
10:51 AM71 °FSunny.6 mph53%29.87 "Hg10 mi
9:51 AM68 °FSunny.3 mph55%29.86 "Hg10 mi
8:51 AM66 °FScattered clouds.7 mph63%29.85 "Hg10 mi
7:51 AM64 °FSunny.3 mph68%29.84 "Hg10 mi
6:51 AM64 °FSunny.5 mph65%29.83 "Hg10 mi
5:51 AM64 °FClear.3 mph68%29.80 "Hg10 mi
4:51 AM65 °FClear.9 mph63%29.78 "Hg10 mi
3:51 AM65 °FClear.8 mph66%29.76 "Hg10 mi
2:51 AM66 °FClear.8 mph63%29.75 "Hg10 mi
1:51 AM67 °FClear.6 mph66%29.73 "Hg10 mi
12:51 AM68 °FPassing clouds.6 mph63%29.71 "Hg10 mi
11:51 PM
Jul 28
69 °FPassing clouds.6 mph63%29.69 "Hg10 mi
10:51 PM70 °FClear.9 mph64%29.69 "Hg10 mi
9:51 PM71 °FPassing clouds.7 mph63%29.67 "Hg10 mi
Weather by CustomWeather, © 2014

See weather overviewHow to use our weather pages